Regional Weather Roundup
Issued by NWS Jackson, KY

Home | Current Version | Previous Version | Text Only | Print | Product List | Glossary Off
Versions: 1 2 3 4 5 6 7 8 9 10 11 12 13 14 15 16 17 18 19 20 21 22 23 24 25 26 27

000
ASUS43 KJKL 182010
RWRJKL

EAST KENTUCKY HOURLY WEATHER ROUNDUP
NATIONAL WEATHER SERVICE JACKSON KY
300 PM EST SAT FEB 18 2017

NOTE: "FAIR" INDICATES FEW OR NO CLOUDS BELOW 12,000 FEET WITH
NO SIGNIFICANT WEATHER AND/OR OBSTRUCTIONS TO VISIBILITY.

* THESE REPORTS ARE NOT UNDER NWS QUALITY CONTROL AND MAY NOT
  REPORT WEATHER SUCH AS PRECIPITATION AND FOG.

KYZ079-080-083-085-087-088-110-112-115-119-120-182100
...EASTERN KENTUCKY...

CITY           SKY/WX    TMP DP  RH WIND       PRES   REMARKS
JACKSON        LGT RAIN  49  41  74 VRB6      29.92S
LONDON         LGT RAIN  49  43  80 S8        29.91F
SOMERSET*      CLOUDY    48  45  87 S7        29.92F
MONTICELLO*    CLOUDY    52  46  80 VRB7      29.92F
WILLIAMSBURG*  CLOUDY    48  48 100 SE5       29.91F
MIDDLESBORO*   RAIN      48  44  87 CALM      29.94F
HARLAN APT*    CLOUDY    48  39  71 CALM      29.93F
PIKE CO APT*     N/A     59  32  36 SW8       29.90S
BIG SANDY APT* CLOUDY    59  34  38 W12G17    29.90S
MOREHEAD APT*  LGT RAIN  52  41  66 SW14G23   29.91S
ASHLAND*       CLOUDY    57  43  58 SW5       29.85F
$$

KYZ035-036-041-042-044-050-067-078-099-182100
...CENTRAL KENTUCKY...

CITY           SKY/WX    TMP DP  RH WIND       PRES   REMARKS
MT STERLING*   DRIZZLE   50  43  76 SW6       29.91S
FLEMING/MASON* LGT RAIN  51  44  77 SW12      29.89R
DANVILLE*      CLOUDY    50  43  76 S6        29.89F
LEXINGTON      LGT RAIN  51  44  77 S9        29.88F
FRANKFORT      CLOUDY    52  45  77 S7        29.86S
LOUISVILLE     LGT RAIN  54  45  71 SW10      29.86R
LEBANON*         N/A     52  43  71 S8        29.88S
GLASGOW*       DRIZZLE   52  46  80 S6        29.89F
BOWLING GREEN  LGT RAIN  52  48  86 SW9       29.90S
$$

KYZ091>093-OHZ055-061-077-WVZ005-015-034-035-042-182100
...SOUTHERN OHIO/WEST VIRGINIA...

CITY           SKY/WX    TMP DP  RH WIND       PRES   REMARKS
COVINGTON      PTSUNNY   62  40  44 SW9       29.82S
COLUMBUS       PTSUNNY   64  38  38 SW15      29.78R
DAYTON         MOSUNNY   65  40  39 S15       29.78S
WILMINGTON     CLOUDY    61  40  45 S20       29.81S
HUNTINGTON     LGT RAIN  58  38  47 SW9G22    29.87S
CHARLESTON     LGT RAIN  61  33  35 SW9       29.86S
PINEVILLE*     PTSUNNY   60  27  28 MISG      29.93F
BECKLEY        CLOUDY    54  31  41 W8        29.89F
BLUEFIELD      MOSUNNY   58  25  28 W7        29.89F
LOGAN CO APT*    N/A     59  34  38 CALM      29.88F
$$

VAZ002-007-008-TNZ017-027-036-066-071-182100
...SOUTHWEST VIRGINIA/EAST TENNESSEE...

CITY           SKY/WX    TMP DP  RH WIND       PRES   REMARKS
WISE*          CLOUDY    52  30  43 SW12      29.93F
JONESVILLE*      N/A     50  41  71 SW5       29.95F
ABINGDON*      CLOUDY    58  29  32 W8        29.92F
BRISTOL        CLOUDY    57  32  38 SW12      29.93F
MORRISTOWN*    MOCLDY    50  46  87 CALM      29.93F
SEVIERVILLE*   MOCLDY    48  43  81 E5        29.93F
KNOXVILLE      CLOUDY    50  46  86 NW5       29.92F
LAFOLLETTE*    CLOUDY    46  46 100 CALM      29.94F
OAK RIDGE      CLOUDY    50  47  89 CALM      29.94F
CROSSVILLE     CLOUDY    49  46  90 SE6       29.89F
NASHVILLE      PTSUNNY   55  44  66 S5        29.91F
$$

...KEY TO REMARKS...
VSB - VISIBILITY IN MILES
WCI - WIND CHILL INDEX
HX  - HEAT INDEX

$$




USA.gov is the U.S. government's official web portal to all federal, state and local government web resources and services.